Alamogordo, NM

9:21 AM MST on November 21, 2019 (GMT -0700)
Alamogordo-White Sands Regional

Weather History for KALM - September, 2019

Change the Weather History Date:

Friday, September 27, 2019

  Actual Average Record
Temperature  
Mean Temperature 70 °F -  
Max Temperature 86 °F 83 °F 97 °F (1977)
Min Temperature 55 °F 54 °F 47 °F (1968)
Cooling Degree Days 6    
Growing Degree Days 20 (Base 50)    
Moisture  
Dew Point 47 °F    
Average Humidity 44    
Maximum Humidity 72    
Minimum Humidity 23    
Precipitation  
Precipitation 0.02 in - - ()
Sea Level Pressure  
Sea Level Pressure 29.94 in    
Wind  
Wind Speed 5 mph ()    
Max Wind Speed 16 mph    
Max Gust Speed 29 mph    
Visibility 9.8 miles    
Events Rain , Thunderstorm    
Averages and records for this station are not official NWS values.
T = Trace of Precipitation, MM = Missing Value Source: Averaged Metar Reports

Daily Weather History Graph

Daily Weather History Graph

Search for Another Location

Airport or City:

Astronomy

Sep. 27, 2019 Rise Set
Actual Time 6:55 AM MDT 6:54 PM MDT
Civil Twilight 6:30 AM MDT 7:18 PM MDT
Nautical Twilight 6:02 AM MDT 7:47 PM MDT
Astronomical Twilight 5:33 AM MDT 8:16 PM MDT
Moon 5:29 AM MDT (9/27) 6:39 PM MDT (9/27)
Length of Visible Light 12h 47m
Length of Day
11h 58m
Waning Crescent, 2% of the Moon is Illuminated
Sep 27
Waning Crescent
Sep 28
New
Oct 5
First Quarter
Oct 13
Full
Oct 21
Last Quarter

Hourly Weather History & Observations

Time (MDT) Temp. Dew Point Humidity Pressure Visibility Wind Dir Wind Speed Gust Speed Precip Events Conditions
12:15 AM 66.2 °F 44.6 °F 46% 30.01 in 10.0 mi SE 4.6 mph - N/A   Clear
12:35 AM 68.0 °F 44.6 °F 43% 30.01 in 10.0 mi SE 4.6 mph - N/A   Clear
12:55 AM 66.2 °F 44.6 °F 46% 30.01 in 10.0 mi SE 5.8 mph - N/A   Clear
1:15 AM 64.4 °F 46.4 °F 52% 30.01 in 10.0 mi SE 5.8 mph - N/A   Clear
1:35 AM 66.2 °F 44.6 °F 46% 30.00 in 10.0 mi SE 4.6 mph - N/A   Clear
1:55 AM 64.4 °F 44.6 °F 49% 30.00 in 10.0 mi SE 4.6 mph - N/A   Clear
2:15 AM 64.4 °F 44.6 °F 49% 30.00 in 10.0 mi SE 5.8 mph - N/A   Clear
2:35 AM 64.4 °F 44.6 °F 49% 30.00 in 10.0 mi Calm Calm - N/A   Clear
2:55 AM 68.0 °F 44.6 °F 43% 30.00 in 10.0 mi Calm Calm - N/A   Clear
3:15 AM 64.4 °F 44.6 °F 49% 29.99 in 10.0 mi Calm Calm - N/A   Clear
3:35 AM 62.6 °F 44.6 °F 52% 29.99 in 10.0 mi Calm Calm - N/A   Scattered Clouds
3:55 AM 62.6 °F 46.4 °F 55% 29.98 in 10.0 mi Calm Calm - N/A   Scattered Clouds
4:15 AM 62.6 °F 46.4 °F 55% 29.98 in 10.0 mi ENE 3.5 mph - N/A   Partly Cloudy
4:35 AM 62.6 °F 46.4 °F 55% 29.98 in 10.0 mi ENE 3.5 mph - N/A   Clear
4:55 AM 62.6 °F 46.4 °F 55% 29.98 in 10.0 mi ENE 3.5 mph - N/A   Clear
5:15 AM 62.6 °F 46.4 °F 55% 29.99 in 10.0 mi ENE 3.5 mph - N/A   Clear
5:35 AM 64.4 °F 46.4 °F 52% 29.98 in 10.0 mi Calm Calm - N/A   Clear
5:55 AM 62.6 °F 46.4 °F 55% 29.98 in 10.0 mi NE 3.5 mph - N/A   Clear
6:15 AM 60.8 °F 46.4 °F 59% 29.99 in 10.0 mi Calm Calm - N/A   Clear
6:35 AM 55.4 °F 46.4 °F 72% 29.99 in 10.0 mi SE 6.9 mph - N/A   Clear
6:55 AM 59.0 °F 46.4 °F 63% 29.99 in 10.0 mi SSE 5.8 mph - N/A   Clear
7:15 AM 60.8 °F 46.4 °F 59% 29.99 in 10.0 mi SE 5.8 mph - N/A   Clear
7:35 AM 60.8 °F 46.4 °F 59% 29.99 in 10.0 mi SE 5.8 mph - N/A   Clear
7:55 AM 62.6 °F 50.0 °F 63% 30.00 in 10.0 mi SSE 3.5 mph - N/A   Clear
8:15 AM 66.2 °F 50.0 °F 56% 30.00 in 10.0 mi South 4.6 mph - N/A   Clear
8:35 AM 68.0 °F 48.2 °F 49% 30.01 in 10.0 mi South 4.6 mph - N/A   Clear
8:55 AM 71.6 °F 50.0 °F 46% 30.01 in 10.0 mi South 4.6 mph - N/A   Clear
9:15 AM 73.4 °F 50.0 °F 44% 30.01 in 10.0 mi SSE 4.6 mph - N/A   Clear
9:35 AM 75.2 °F 48.2 °F 38% 30.01 in 10.0 mi WSW 4.6 mph - N/A   Clear
9:55 AM 75.2 °F 50.0 °F 41% 30.01 in 10.0 mi SW 3.5 mph - N/A   Clear
10:15 AM 77.0 °F 48.2 °F 36% 30.01 in 10.0 mi WSW 4.6 mph - N/A   Clear
10:35 AM 77.0 °F 48.2 °F 36% 30.00 in 10.0 mi SSE 4.6 mph - N/A   Clear
10:55 AM 78.8 °F 48.2 °F 34% 30.00 in 10.0 mi WSW 4.6 mph - N/A   Clear
11:15 AM 78.8 °F 48.2 °F 34% 29.99 in 10.0 mi West 3.5 mph - N/A   Clear
11:35 AM 80.6 °F 46.4 °F 30% 29.99 in 10.0 mi SW 9.2 mph - N/A   Clear
11:55 AM 80.6 °F 46.4 °F 30% 29.98 in 10.0 mi SSW 8.1 mph - N/A   Clear
12:15 PM 82.4 °F 46.4 °F 28% 29.97 in 10.0 mi WSW 4.6 mph - N/A   Clear
12:35 PM 82.4 °F 46.4 °F 28% 29.96 in 10.0 mi West 5.8 mph - N/A   Clear
12:55 PM 82.4 °F 48.2 °F 30% 29.95 in 10.0 mi SE 5.8 mph - N/A   Clear
1:15 PM 82.4 °F 46.4 °F 28% 29.94 in 10.0 mi WSW 9.2 mph - N/A   Scattered Clouds
1:35 PM 84.2 °F 46.4 °F 27% 29.93 in 10.0 mi SW 8.1 mph - N/A   Mostly Cloudy
1:55 PM 84.2 °F 44.6 °F 25% 29.91 in 10.0 mi WSW 6.9 mph - N/A   Mostly Cloudy
2:15 PM 84.2 °F 44.6 °F 25% 29.90 in 10.0 mi South 4.6 mph - N/A   Mostly Cloudy
2:35 PM 84.2 °F 46.4 °F 27% 29.89 in 10.0 mi SSE 9.2 mph 17.3 mph N/A   Partly Cloudy
2:55 PM 84.2 °F 46.4 °F 27% 29.88 in 10.0 mi SW 5.8 mph - N/A   Scattered Clouds
3:15 PM 86.0 °F 46.4 °F 25% 29.87 in 10.0 mi WSW 12.7 mph 16.1 mph N/A   Mostly Cloudy
3:35 PM 86.0 °F 44.6 °F 23% 29.86 in 10.0 mi WSW 12.7 mph 17.3 mph N/A   Mostly Cloudy
3:55 PM 84.2 °F 44.6 °F 25% 29.85 in 10.0 mi WSW 8.1 mph - N/A   Scattered Clouds
4:35 PM 82.4 °F 44.6 °F 26% 29.85 in 10.0 mi SSW 9.2 mph - N/A   Scattered Clouds
4:55 PM 82.4 °F 44.6 °F 26% 29.84 in 10.0 mi SSW 8.1 mph - N/A   Mostly Cloudy
5:15 PM 82.4 °F 44.6 °F 26% 29.84 in 10.0 mi South 5.8 mph - N/A   Mostly Cloudy
5:35 PM 82.4 °F 44.6 °F 26% 29.84 in 10.0 mi SSW 9.2 mph - N/A   Partly Cloudy
5:55 PM 82.4 °F 44.6 °F 26% 29.84 in 10.0 mi SSW 11.5 mph - N/A   Clear
6:15 PM 80.6 °F 44.6 °F 28% 29.84 in 10.0 mi South 9.2 mph - N/A   Clear
6:35 PM 78.8 °F 44.6 °F 30% 29.85 in 10.0 mi SSW 6.9 mph - N/A   Partly Cloudy
6:55 PM 77.0 °F 50.0 °F 39% 29.87 in 10.0 mi WNW 16.1 mph 28.8 mph N/A   Scattered Clouds
7:15 PM 71.6 °F 50.0 °F 46% 29.88 in 5.0 mi NW 15.0 mph 24.2 mph N/A   Haze
7:35 PM 71.6 °F 50.0 °F 46% 29.90 in 7.0 mi NE 10.4 mph - N/A Thunderstorm Mostly Cloudy
7:55 PM 71.6 °F 48.2 °F 43% 29.90 in 10.0 mi NE 13.8 mph 21.9 mph N/A   Scattered Clouds
8:15 PM 73.4 °F 46.4 °F 38% 29.91 in 10.0 mi North 12.7 mph - N/A   Partly Cloudy
8:35 PM 73.4 °F 46.4 °F 38% 29.92 in 10.0 mi NNE 13.8 mph 19.6 mph N/A Thunderstorm Scattered Clouds
8:55 PM 68.0 °F 53.6 °F 60% 29.93 in 5.0 mi North 16.1 mph - 0.02 in Rain , Thunderstorm Light Thunderstorms and Rain
9:15 PM 66.2 °F 53.6 °F 64% 29.92 in 10.0 mi NE 16.1 mph - N/A Thunderstorm Mostly Cloudy
9:35 PM 66.2 °F 53.6 °F 64% 29.92 in 10.0 mi NE 12.7 mph - N/A Thunderstorm Partly Cloudy
9:55 PM 68.0 °F 55.4 °F 64% 29.91 in 10.0 mi NE 11.5 mph - N/A Thunderstorm Partly Cloudy
10:15 PM 68.0 °F 53.6 °F 60% 29.90 in 10.0 mi NE 11.5 mph - N/A   Partly Cloudy
10:35 PM 68.0 °F 50.0 °F 52% 29.90 in 10.0 mi ENE 6.9 mph - N/A   Partly Cloudy
10:55 PM 68.0 °F 50.0 °F 52% 29.89 in 10.0 mi ENE 5.8 mph - N/A   Clear
11:15 PM 68.0 °F 50.0 °F 52% 29.89 in 10.0 mi ENE 8.1 mph - N/A   Clear
11:35 PM 66.2 °F 50.0 °F 56% 29.89 in 10.0 mi ENE 8.1 mph - N/A   Clear
11:55 PM 66.2 °F 50.0 °F 56% 29.88 in 10.0 mi NE 5.8 mph - N/A   Clear